Home   Weather   Ashgabat   Past weeks

Flag for Turkmenistan Past Weather in Ashgabat, Turkmenistan — Yesterday and Last 2 Weeks

Now
39 °F

Overcast.


Feels Like: 37 °F
Forecast: 26 / 40 °F
Wind: 3 mph from Southwest

Location: Ashgabat

Current Time: Jan 24, 2017 at 12:04:28 am

Latest Report: Jan 23, 2017 at 11:00 pm


Visibility: N/A

Pressure: 30.45 "Hg

Humidity: 70%

Dew Point: 30 °F

Location of AshgabatLocation

Past Weather in Ashgabat — Graph

°F

Ashgabat Temperature Yesterday

Maximum temperature yesterday: 41 °F (at 12:00 am)
Minimum temperature yesterday: 36 °F (at 7:00 am)
Average temperature yesterday: 39 °F

High & Low Weather Summary for the Past Weeks

 TemperatureHumidityPressure
High66 °F (Jan 10, 3:00 pm)100% (Jan 8, 11:00 pm)30.45 "Hg (Jan 8, 11:00 pm)
Low25 °F (Jan 9, 7:00 am)19% (Jan 10, 3:00 pm)29.92 "Hg (Jan 9, 4:00 pm)
Average38 °F76%30.20 "Hg
* Reported Jan 8 10:00 pm — Jan 23 10:00 pm, Ashgabat, Weather by CustomWeather, © 2017

Note: Actual official high and low records may vary slightly from our data, if they occured in-between our weather recording intervals... More about our weather records

Advertising

Ashgabat Weather History for the Previous 24 Hours

Scroll right to see more
 ConditionsComfort  
Time TempWeatherWind HumidityBarometerVisibility
10:00 pm
Mon, Jan 23
39 °FMostly cloudy.3 mph75%30.45 "HgN/A
9:00 pm37 °FMostly cloudy.2 mph81%30.45 "HgN/A
8:00 pm39 °FOvercast.5 mph75%30.42 "HgN/A
7:00 pm41 °FPartly sunny.1 mph66%30.39 "HgN/A
6:00 pm41 °FPartly sunny.3 mph61%30.39 "HgN/A
5:00 pm41 °FMostly cloudy.2 mph70%30.39 "HgN/A
4:00 pm41 °FMostly cloudy.1 mph70%30.39 "Hg6 mi
3:00 pm39 °FMostly cloudy.5 mph81%30.39 "HgN/A
2:00 pm39 °FCloudy.5 mph81%30.39 "HgN/A
1:00 pm39 °FMore clouds than sun.2 mph81%30.42 "HgN/A
12:00 pm37 °FOvercast.5 mph87%30.42 "HgN/A
11:00 am37 °FOvercast.6 mph81%30.42 "HgN/A
10:00 am36 °FLow clouds.9 mph87%30.42 "HgN/A
9:00 am36 °FLow clouds.10 mph93%30.42 "HgN/A
8:00 am36 °FLight rain. Low clouds.13 mph93%30.39 "Hg6 mi
7:00 am36 °FLight rain. Low clouds.14 mph93%30.39 "Hg6 mi
6:00 am37 °FLight rain. Overcast.10 mph87%30.36 "HgN/A
5:00 am39 °FSprinkles. Passing clouds.13 mph81%30.36 "HgN/A
4:00 am39 °FLight rain. Overcast.10 mph87%30.33 "Hg6 mi
3:00 am39 °FLight rain. Overcast.16 mph87%30.33 "Hg6 mi
2:00 am41 °FLight rain. Overcast.8 mph87%30.30 "Hg5 mi
1:00 am41 °FLight rain. Overcast.7 mph93%30.27 "Hg4 mi
12:00 am41 °FSprinkles. Overcast.12 mph93%30.24 "Hg3 mi
Weather by CustomWeather, © 2017

See weather overviewHow to use our weather pages